[[{"header":{"parameterUnit":"m.s-1","parameterCategory":1,"la1":30.2991,"la2":30.254,"lo1":-89.0895,"lo2":-89.0444,"dy":0.0017,"dx":0.0017,"nx":28,"ny":28,"refTime":"2024-12-31T09:00:00:Z","depth":0,"parameterNumber":2,"parameterNumberName":"U-component_of_WINDS"},"data":[0,0,0,0,0,0,0,0,0,0,0,0,0,0,0,0,0,0,0,0,0,0,0,0,0,0,0,0,0,0,0,0,0,0,0,0,0,0,0,0,0,0,0,0,0,0,0,0,0,0,0,0,0,0,0,0,0,0,-0.0182,-0.0182,0,-0.0138,-0.0137,-0.0137,-0.0119,-0.0119,-0.0119,-0.012,-0.0073,-0.0071,-0.007,0,0,0,0,0,0,0,0,0,0,0,0,0,-0.0252,-0.0251,-0.0182,-0.0182,-0.0181,-0.0138,-0.0137,-0.0136,-0.0119,-0.0119,-0.012,-0.012,-0.0073,-0.0072,-0.007,0,0,0,0,0,0,0,0,0,0,0,0,0,-0.0216,-0.025,-0.0183,-0.0168,-0.0166,-0.0138,-0.0137,-0.0136,-0.0119,-0.0119,-0.012,-0.012,-0.0074,-0.0072,-0.007,-0.0053,0,0,-0.0064,-0.0063,0,0,0,0,0,0,0,0,-0.0218,-0.0213,-0.017,-0.0168,-0.0166,-0.0134,-0.0144,-0.0108,-0.0119,-0.0137,-0.012,-0.012,-0.0093,-0.0089,-0.0081,-0.0051,-0.0049,-0.0063,-0.0062,-0.0061,-0.0061,0,0,0,0,0,0,0,-0.022,-0.0215,-0.0165,-0.017,-0.0167,-0.0162,-0.0158,-0.0137,-0.0114,-0.0135,-0.0134,-0.0129,-0.0092,-0.0083,-0.0079,-0.0048,-0.0063,-0.0062,-0.006,-0.0059,-0.0002,-0.0002,0,0,0,0,0,0,-0.0225,-0.0217,-0.0166,-0.0163,-0.0193,-0.0161,-0.0156,-0.0144,-0.0115,-0.011,-0.0129,-0.0128,-0.0086,-0.0082,-0.0078,-0.0056,-0.0061,-0.0059,-0.0058,-0.0002,-0.0002,-0.0001,0,0,0,0,0,0,-0.0227,-0.0221,-0.0168,-0.019,-0.0183,-0.016,-0.0147,-0.0143,-0.0134,-0.011,-0.0105,-0.0123,-0.0086,-0.008,-0.0059,-0.0054,-0.0058,-0.0057,-0.0002,-0.0002,-0.0002,-0.0012,0,0,0,0,0,0,-0.0229,-0.0222,-0.0216,-0.019,-0.0182,-0.0151,-0.0147,-0.0142,-0.0131,-0.0129,-0.0103,-0.0099,-0.0086,-0.0062,-0.0057,-0.0051,-0.0055,-0.0003,-0.0002,-0.0002,-0.0012,-0.0012,-0.0012,0,0,0,0,0,-0.0232,-0.022,-0.0215,-0.0209,-0.0174,-0.0151,-0.0146,-0.0131,-0.013,-0.0124,-0.0108,-0.01,-0.0055,-0.006,-0.0054,-0.0048,-0.0003,-0.0002,-0.0002,-0.0012,-0.0012,-0.0012,0,0,0,0,0,0,-0.0246,-0.0217,-0.0211,-0.0191,-0.0174,-0.0148,-0.0139,-0.0131,-0.0113,-0.0113,-0.0094,-0.0088,-0.0068,-0.0056,-0.0062,-0.0029,-0.0029,-0.0027,-0.0038,-0.0038,-0.0038,-0.0042,-0.0053,0,0,0,0,0,-0.0247,-0.0231,-0.0206,-0.0191,-0.0183,-0.0162,-0.0152,-0.0141,-0.0122,-0.0115,-0.0097,-0.0079,-0.006,-0.0048,-0.003,-0.001,-0.0004,-0.0002,-0.0002,-0.0002,-0.0001,0.0012,0.0013,0.0001,0.0001,0.0001,0,0,-0.0249,-0.0231,-0.0222,-0.0194,-0.0179,-0.0162,-0.0156,-0.0139,-0.0126,-0.0112,-0.0091,-0.0077,-0.0055,-0.0034,-0.0024,-0.0023,0.0004,-0.0001,-0.0002,-0.0,0.0012,0.0014,0.0015,0.0001,0.0001,0.0001,0,0,-0.0243,-0.0229,-0.0214,-0.0199,-0.0176,-0.0163,-0.0159,-0.0134,-0.0125,-0.0103,-0.0092,-0.0076,-0.0045,-0.003,-0.0018,-0.0005,0.0003,0.0,0.0001,0.0012,0.0013,0.0014,0.0019,0.0021,0.0002,0.0002,0.0002,0,-0.0248,-0.0223,-0.0207,-0.0191,-0.0178,-0.0164,-0.0149,-0.0135,-0.0108,-0.0099,-0.0098,-0.0058,-0.0042,-0.0017,-0.0014,-0.0005,0.0,-0.0003,0.0012,0.0013,0.0014,0.0019,0.0021,0.0001,0.0001,0.0001,0.0001,0,-0.023,-0.0213,-0.0204,-0.0178,-0.0164,-0.0148,-0.0129,-0.0117,-0.0108,-0.0094,-0.0072,-0.0052,-0.0029,-0.0023,-0.0013,0.0004,0.0004,0.0008,0.0009,0.0015,0.002,0.0022,0.0001,0.0001,0.0001,0.0001,0,0,-0.0233,-0.0198,-0.0195,-0.0183,-0.0156,-0.0142,-0.0125,-0.0103,-0.0093,-0.0074,-0.0059,-0.0033,-0.0028,-0.0015,-0.0003,0.0007,0.0016,0.001,0.0011,0.0011,0.0038,0.0035,0.0037,0.0022,0.0022,0.0023,0.0036,0,-0.0224,-0.0194,-0.0179,-0.0155,-0.0138,-0.0124,-0.0109,-0.0091,-0.0077,-0.0061,-0.0045,-0.0027,-0.0023,-0.0015,-0.0004,0.0013,0.0022,0.0012,0.0037,0.0037,0.0031,0.0039,0.0036,0.0047,0.0038,0.0038,0.0039,0,-0.021,-0.0191,-0.0166,-0.014,-0.0133,-0.012,-0.0098,-0.0082,-0.0061,-0.0052,-0.0036,-0.0025,-0.0006,-0.0006,0.0021,0.0014,0.0025,0.0035,0.0036,0.0039,0.0038,0.0043,0.0051,0.0053,0.0042,0.0042,0.0041,0,-0.0214,-0.0183,-0.0163,-0.0153,-0.0123,-0.0114,-0.0101,-0.008,-0.0068,-0.0048,-0.0039,-0.0018,-0.0006,0.0011,0.0028,0.0026,0.0054,0.0055,0.0063,0.0062,0.0068,0.0067,0.0078,0.0074,0.0074,0.0074,0.0074,0,-0.0206,-0.0191,-0.0165,-0.0153,-0.0135,-0.0117,-0.0099,-0.0085,-0.0066,-0.0051,-0.0037,-0.0023,-0.0001,0.0016,0.003,0.0051,0.0056,0.0064,0.0068,0.0063,0.0062,0.0071,0.0071,0.0075,0.0075,0.0075,0.0074,0,-0.0208,-0.019,-0.0168,-0.0141,-0.0134,-0.0122,-0.0099,-0.0086,-0.0072,-0.0052,-0.0046,-0.0023,-0.0002,0.0017,0.0045,0.0054,0.0076,0.008,0.0068,0.007,0.0077,0.0076,0.0094,0.0098,0.0091,0.0091,0.0091,0,-0.0204,-0.0192,-0.0164,-0.0152,-0.014,-0.0122,-0.0108,-0.009,-0.0077,-0.0051,-0.0041,-0.0019,0.0,0.0034,0.0053,0.0075,0.008,0.0085,0.0083,0.0079,0.0081,0.008,0.0081,0.0085,0.0085,0.0085,0.0085,0,-0.0198,-0.0189,-0.0171,-0.015,-0.0134,-0.0116,-0.0098,-0.0089,-0.0067,-0.0053,-0.0031,-0.0016,0.0013,0.0035,0.0059,0.0073,0.0083,0.0085,0.0088,0.0084,0.0077,0.0081,0.0069,0.0085,0.0085,0.0085,0.0085,0.0085,-0.0196,-0.0185,-0.0163,-0.0143,-0.0127,-0.011,-0.0096,-0.008,-0.0062,-0.0037,-0.0027,-0.0004,0.0018,0.0052,0.0066,0.0084,0.0086,0.009,0.0091,0.0092,0.0091,0.0074,0.0089,0.0089,0.0089,0.0089,0.0089,0,-0.0189,-0.0175,-0.0156,-0.0131,-0.0115,-0.0107,-0.0086,-0.0073,-0.0054,-0.0034,-0.0016,0.001,0.0032,0.0054,0.0077,0.0087,0.0093,0.0093,0.0092,0.0096,0.0088,0.0084,0.0089,0.0089,0.0089,0.0089,0.0089,0.0089,-0.0184,-0.0164,-0.0152,-0.0124,-0.0109,-0.0087,-0.0075,-0.0059,-0.0043,-0.0015,0.0003,0.0017,0.0038,0.0063,0.0083,0.0089,0.0097,0.0097,0.0104,0.0096,0.0096,0.0096,0.0092,0.0098,0.0098,0.011,0.011,0.011]},{"header":{"parameterUnit":"m.s-1","parameterCategory":1,"la1":30.2991,"la2":30.254,"lo1":-89.0895,"lo2":-89.0444,"dy":0.0017,"dx":0.0017,"nx":28,"ny":28,"refTime":"2024-12-31T09:00:00:Z","depth":0,"parameterNumber":3,"parameterNumberName":"V-component_of_WINDS"},"data":[0,0,0,0,0,0,0,0,0,0,0,0,0,0,0,0,0,0,0,0,0,0,0,0,0,0,0,0,0,0,0,0,0,0,0,0,0,0,0,0,0,0,0,0,0,0,0,0,0,0,0,0,0,0,0,0,0,0,-3.1654,-3.1655,0,-3.1725,-3.1726,-3.1727,-3.1741,-3.174,-3.174,-3.1739,-3.1808,-3.1811,-3.1813,0,0,0,0,0,0,0,0,0,0,0,0,0,-3.1528,-3.153,-3.1654,-3.1655,-3.1656,-3.1725,-3.1726,-3.1727,-3.1741,-3.174,-3.1739,-3.1739,-3.1807,-3.181,-3.1813,0,0,0,0,0,0,0,0,0,0,0,0,0,-3.1589,-3.1531,-3.1654,-3.1671,-3.1673,-3.1725,-3.1726,-3.1727,-3.1741,-3.174,-3.1739,-3.1738,-3.1807,-3.181,-3.1814,-3.1852,0,0,-3.1824,-3.1826,0,0,0,0,0,0,0,0,-3.1585,-3.1594,-3.1668,-3.167,-3.1672,-3.1723,-3.1707,-3.1769,-3.1741,-3.1715,-3.1739,-3.1738,-3.178,-3.1786,-3.1801,-3.1855,-3.1858,-3.1825,-3.1827,-3.1828,-3.1829,0,0,0,0,0,0,0,-3.1581,-3.1591,-3.1682,-3.1669,-3.1672,-3.1675,-3.1682,-3.1719,-3.1751,-3.1717,-3.1718,-3.1727,-3.1782,-3.1798,-3.1803,-3.1859,-3.1825,-3.1828,-3.183,-3.1831,-3.1951,-3.1952,0,0,0,0,0,0,-3.1574,-3.1587,-3.168,-3.1684,-3.1626,-3.1677,-3.1686,-3.1708,-3.1751,-3.1757,-3.1728,-3.1727,-3.1792,-3.1799,-3.1805,-3.1855,-3.1828,-3.1832,-3.1834,-3.195,-3.1951,-3.1952,0,0,0,0,0,0,-3.1572,-3.1582,-3.1677,-3.1636,-3.1648,-3.1681,-3.1705,-3.171,-3.1726,-3.1759,-3.1764,-3.1738,-3.1792,-3.18,-3.1841,-3.1858,-3.1833,-3.1836,-3.1949,-3.195,-3.1952,-3.1954,0,0,0,0,0,0,-3.1568,-3.1581,-3.1597,-3.1636,-3.165,-3.1712,-3.1706,-3.1712,-3.1732,-3.1733,-3.177,-3.1776,-3.1792,-3.1836,-3.1845,-3.1862,-3.1839,-3.1947,-3.1949,-3.1951,-3.1953,-3.1956,-3.1958,0,0,0,0,0,-3.1563,-3.1593,-3.1597,-3.1608,-3.167,-3.1713,-3.1721,-3.174,-3.1733,-3.1749,-3.1771,-3.1775,-3.1854,-3.184,-3.185,-3.1869,-3.1946,-3.1949,-3.1951,-3.1951,-3.1955,-3.1958,0,0,0,0,0,0,-3.1552,-3.1598,-3.1604,-3.1647,-3.1676,-3.1715,-3.1735,-3.1742,-3.1773,-3.1772,-3.1793,-3.1801,-3.1841,-3.1859,-3.1842,-3.191,-3.19,-3.1904,-3.1897,-3.19,-3.1903,-3.1898,-3.1842,0,0,0,0,0,-3.1555,-3.1587,-3.1625,-3.166,-3.1674,-3.1702,-3.1721,-3.1734,-3.1764,-3.1776,-3.1801,-3.1829,-3.1861,-3.1881,-3.1912,-3.1955,-3.1964,-3.1973,-3.1976,-3.1978,-3.1982,-3.2008,-3.2013,-3.196,-3.196,-3.196,0,0,-3.1561,-3.159,-3.1608,-3.1658,-3.1682,-3.1715,-3.1712,-3.1746,-3.177,-3.1781,-3.1822,-3.1841,-3.1874,-3.1917,-3.1937,-3.1933,-3.1998,-3.1981,-3.1982,-3.1985,-3.2011,-3.2016,-3.202,-3.1962,-3.1962,-3.1961,0,0,-3.1588,-3.1613,-3.1646,-3.1671,-3.1708,-3.1727,-3.1735,-3.1774,-3.1788,-3.1829,-3.1839,-3.1867,-3.1921,-3.1945,-3.1965,-3.2004,-3.2009,-3.2013,-3.2027,-3.2053,-3.2057,-3.2061,-3.2077,-3.2082,-3.2017,-3.2017,-3.2017,0,-3.159,-3.164,-3.1661,-3.1696,-3.1718,-3.1732,-3.1765,-3.1788,-3.1833,-3.1848,-3.1843,-3.1913,-3.1936,-3.1985,-3.1996,-3.201,-3.202,-3.2009,-3.2055,-3.2059,-3.2063,-3.2078,-3.2084,-3.2017,-3.2017,-3.2017,-3.2017,0,-3.1642,-3.1677,-3.1699,-3.1745,-3.1769,-3.1803,-3.1829,-3.1851,-3.1862,-3.1881,-3.1924,-3.1953,-3.1991,-3.2004,-3.2013,-3.2055,-3.2052,-3.2051,-3.2042,-3.2068,-3.2083,-3.2089,-3.2018,-3.2018,-3.2018,-3.2018,0,0,-3.1663,-3.1723,-3.173,-3.1752,-3.1796,-3.1823,-3.1857,-3.1897,-3.1916,-3.1947,-3.1977,-3.2023,-3.2024,-3.2045,-3.2058,-3.208,-3.2112,-3.2076,-3.2077,-3.2083,-3.2162,-3.2164,-3.2171,-3.2116,-3.2117,-3.2118,-3.216,0,-3.1697,-3.1762,-3.1783,-3.1836,-3.1869,-3.1883,-3.1914,-3.1944,-3.1963,-3.1994,-3.2014,-3.2048,-3.2044,-3.2058,-3.2081,-3.2103,-3.2128,-3.21,-3.2144,-3.2146,-3.2137,-3.2178,-3.218,-3.2218,-3.2166,-3.2167,-3.2168,0,-3.1745,-3.178,-3.1837,-3.1879,-3.1893,-3.1921,-3.196,-3.1988,-3.2023,-3.2036,-3.2062,-3.2073,-3.211,-3.2099,-3.2151,-3.2131,-3.215,-3.2164,-3.2166,-3.2172,-3.2159,-3.2186,-3.2231,-3.2237,-3.2177,-3.2176,-3.2175,0,-3.1757,-3.1818,-3.1861,-3.1879,-3.1928,-3.1947,-3.1968,-3.2002,-3.2025,-3.2059,-3.2074,-3.211,-3.2131,-3.2159,-3.218,-3.2169,-3.2231,-3.222,-3.2243,-3.2242,-3.2256,-3.2255,-3.2305,-3.2266,-3.2266,-3.2265,-3.2265,0,-3.1794,-3.1828,-3.1867,-3.1894,-3.1934,-3.1957,-3.1996,-3.2018,-3.2048,-3.2079,-3.2092,-3.2121,-3.2147,-3.2179,-3.2195,-3.2237,-3.2245,-3.2257,-3.2261,-3.2257,-3.2255,-3.227,-3.2268,-3.2267,-3.2267,-3.2266,-3.2266,0,-3.1814,-3.1841,-3.1889,-3.1933,-3.1945,-3.1973,-3.201,-3.2036,-3.2057,-3.2096,-3.2106,-3.2138,-3.2177,-3.2201,-3.2249,-3.226,-3.2307,-3.2309,-3.2296,-3.2298,-3.232,-3.2318,-3.2383,-3.2393,-3.2345,-3.2345,-3.2346,0,-3.1836,-3.1864,-3.1911,-3.1934,-3.1956,-3.1992,-3.2017,-3.2041,-3.2066,-3.2109,-3.213,-3.217,-3.2204,-3.2265,-3.2292,-3.2329,-3.2334,-3.2354,-3.2339,-3.2335,-3.2336,-3.2335,-3.2338,-3.2356,-3.2357,-3.2357,-3.2357,0,-3.1873,-3.1886,-3.1921,-3.1963,-3.1992,-3.2025,-3.2058,-3.2075,-3.2106,-3.2133,-3.2174,-3.22,-3.2251,-3.2291,-3.2331,-3.2352,-3.236,-3.2362,-3.2369,-3.2366,-3.2358,-3.2364,-3.2304,-3.236,-3.236,-3.236,-3.236,-3.236,-3.1896,-3.1922,-3.1961,-3.2001,-3.2029,-3.206,-3.2088,-3.2113,-3.2148,-3.2193,-3.2205,-3.2248,-3.2284,-3.2339,-3.2361,-3.2395,-3.2392,-3.2403,-3.2405,-3.2408,-3.241,-3.2351,-3.2402,-3.2402,-3.2402,-3.2402,-3.2402,0,-3.1935,-3.1961,-3.1998,-3.2045,-3.2077,-3.2083,-3.2121,-3.2147,-3.2185,-3.2218,-3.2252,-3.23,-3.2339,-3.237,-3.2411,-3.2432,-3.2437,-3.2442,-3.2441,-3.2446,-3.2409,-3.2399,-3.2437,-3.2437,-3.2437,-3.2437,-3.2437,-3.2437,-3.1959,-3.2005,-3.2023,-3.2083,-3.2109,-3.2153,-3.2174,-3.2203,-3.223,-3.2284,-3.2317,-3.2338,-3.2371,-3.2414,-3.2451,-3.2459,-3.2474,-3.2479,-3.2487,-3.2452,-3.2448,-3.2445,-3.2436,-3.2481,-3.2481,-3.2522,-3.2523,-3.2523]}]]